Погода в Верхней Максаковке

Россия / Республика Коми     61°37′59″N   50°58′01″E
темп.,
°C
ветер,
м/с
пор.,
м/с
влажн.,
%
обл.,
%
осадки,
мм/ч
давл.,
гПа
погр.,
м
25 февраля, чт
чт2500:00−23ю229789 0.0 103023
03:00−24ю239891 0.0 102975
06:00−25ююв379851 0.0 1027142
09:00−22ююв389432 0.0 1025266
12:00−17ююв488826 0.0 1023423
15:00−15ююв488613 0.0 1021522
18:00−19юв310920 0.0 1020331
21:00−21ююв39950 0.0 1021243
26 февраля, пт
пт2600:00−22ююв389639 0.0 1020240
03:00−22ююв389569 0.0 1020260
06:00−23ююв399598 0.0 1018267
09:00−21ююв499396 0.0 1018346
12:00−17ююв498999 0.0 1016514
15:00−16ююв4108999 0.0 1015635
18:00−18юв41293100 0.0 1012587
21:00−19юв41293100 0.1 1012533
27 февраля, сб
сб2700:00−20юв41094100 0.0 1011417
03:00−21вюв3109597 0.0 1011388
06:00−21вюв3109696 0.0 1010383
09:00−18вюв399197 0.0 1011434
12:00−13вюв3786100 0.0 1011630
15:00−11в3786100 0.0 1011679
18:00−17в239461 0.0 101156
21:00−19в229641 0.0 101320
28 февраля, вс
вс2800:00−20всв229957 0.0 101320
03:00−22в229960 0.0 101520
06:00−24вюв129518 0.0 101520
09:00−19юв12899 0.0 1016172
12:00−14юв11810 0.0 1016365
15:00−13ссв00839 0.0 1016366
18:00−18сз009253 0.0 101720
21:00−20зюз119452 0.0 101820
1 марта, пн
пн100:00−20зюз129611 0.0 101920
03:00−21юз22985 0.0 101921
06:00−20юз239932 0.0 101880
09:00−16юз379551 0.0 1016251
12:00−11ююз4993100 0.0 1013347
15:00−8юз51193100 0.4 1009481
18:00−7юз51295100 1.0 1005631
21:00−4юз51295100 2.6 1002626